This is the latest recevied weather packets stored in our database for station/object K9RJT. If no packets are shown the sender has not sent any weather packets the latest 10 day(s).
| Time | Temp. | Humidity | Pressure | Rain* | Wind** | Luminosity | Snow |
|---|---|---|---|---|---|---|---|
| 1778074947 | 8.33° C | 77% | 1014.2 hPa | 0 mm | - | 63 W/m² | - |
| 1778074645 | 7.78° C | 79% | 1014.3 hPa | 0 mm | - | 54 W/m² | - |
| 1778074341 | 7.22° C | 80% | 1014.2 hPa | 0 mm | - | 47 W/m² | - |
| 1778074038 | 6.67° C | 81% | 1014.3 hPa | 0 mm | - | 39 W/m² | - |
| 1778073735 | 6.67° C | 81% | 1014.5 hPa | 0 mm | - | 32 W/m² | - |
| 1778073433 | 7.22° C | 80% | 1014.3 hPa | 0 mm | - | 25 W/m² | - |
| 1778073129 | 6.67° C | 80% | 1014.1 hPa | 0 mm | - | 20 W/m² | - |
| 1778072826 | 6.67° C | 80% | 1014.2 hPa | 0 mm | - | 14 W/m² | - |
| 1778072523 | 6.67° C | 81% | 1013.9 hPa | 0 mm | - | 10 W/m² | - |
| 1778072221 | 6.67° C | 81% | 1014 hPa | 0 mm | - | 7 W/m² | - |
| 1778071918 | 6.67° C | 81% | 1013.9 hPa | 0 mm | - | 5 W/m² | - |
| 1778071616 | 6.67° C | 81% | 1013.8 hPa | 0 mm | - | 3 W/m² | - |
| 1778071314 | 6.67° C | 81% | 1014 hPa | 0 mm | - | 2 W/m² | - |
| 1778071011 | 6.67° C | 81% | 1013.9 hPa | 0 mm | - | 1 W/m² | - |
| 1778070710 | 6.67° C | 81% | 1014 hPa | 0 mm | - | 0 W/m² | - |
| 1778070406 | 6.67° C | 81% | 1014 hPa | 0 mm | - | 0 W/m² | - |
| 1778070104 | 6.67° C | 80% | 1013.9 hPa | 0 mm | - | 0 W/m² | - |
| 1778069801 | 6.67° C | 80% | 1014 hPa | 0 mm | - | 0 W/m² | - |
| 1778069497 | 7.22° C | 80% | 1013.9 hPa | 0 mm | - | 0 W/m² | - |
| 1778069196 | 7.22° C | 79% | 1013.8 hPa | 0 mm | - | 0 W/m² | - |
| 1778068892 | 7.78° C | 79% | 1013.8 hPa | 0 mm | - | 0 W/m² | - |
| 1778068591 | 7.78° C | 78% | 1013.8 hPa | 0 mm | - | 0 W/m² | - |
| 1778068289 | 7.78° C | 78% | 1013.9 hPa | 0 mm | - | 0 W/m² | - |
| 1778067986 | 7.78° C | 78% | 1013.6 hPa | 0 mm | - | 0 W/m² | - |
| 1778067684 | 7.78° C | 78% | 1013.7 hPa | 0 mm | - | 0 W/m² | - |
* Rain latest hour (hover to see other rain measurements)
** Current wind speed in m/s (hover to see current wind gust speed)